Вернуться в каталог

STARLINK-3327

АктивенСвязьVLEO
NORAD 50819·PAYLOAD·🇺🇸 United States

Запущен Jan 6, 2022 с Cape Canaveral Space Force Station

Loading…

Ближайшие Пролёты (ближайшие 24 часа)

TLE

СвежийSource: CelesTrak SupGP

Эпоха: Sep 14, 2026, 20:40 UTC

1 50819C 22001S   26257.86159722  .00037725  00000+0  11147-2 0  2576
2 50819  53.1593  28.4367 0000998  76.8883 324.8410 15.34368077    14

Отслеживайте STARLINK-3327 в реальном времени с AllMySat

Download on the App Store